Regional Weather Roundup
Issued by NWS

Home | Current Version | Previous Version | Text Only | Print | Product List | Glossary On
Versions: 1 2 3 4 5 6 7 8 9 10 11 12 13 14 15 16 17 18 19 20 21 22 23 24 25 26 27
000
ASCA42 TJSJ 031110
RWRPR
PUERTO RICO/U.S. VIRGIN ISLANDS HOURLY WEATHER ROUNDUP
NATIONAL WEATHER SERVICE SAN JUAN PR
700 AM AST TUE AUG 03 2021

PRZ001>002-007>008-010-031200-
PUERTO RICO

CITY           SKY/WX    TMP DP  RH WIND       PRES   REMARKS
SAN JUAN LMM   MOSUNNY   79  73  83 CALM      30.05R
AGUADILLA      SUNNY     73  70  88 SE3       30.05
CEIBA          PTSUNNY   79  75  89 SE5       30.06R
$$

VIZ001>002-031200-
U.S. VIRGIN ISLANDS

CITY           SKY/WX    TMP DP  RH WIND       PRES   REMARKS
CHRISTIANSTED  MOSUNNY   75  73  94 NE9       30.05R
$$

HOURLY WEATHER ROUNDUP FOR THE NEWS MEDIA

CITY           SKY/WX    TMP DP  RH WIND       PRES   REMARKS
ORLANDO        CLOUDY    78  74  87 W13       30.00R
NEW YORK       CLOUDY    67  55  65 N5        30.13R
NEWARK         CLOUDY    64  54  69 N3        30.12R
CHICAGO        PTCLDY    63  56  78 CALM      30.11S
HARTFORD       PTSUNNY   59  57  93 CALM      30.10S
BOSTON         PTSUNNY   68  56  65 CALM      30.11R
DALLAS         PTCLDY    74  71  91 N5        30.00S
PHILADELPHIA   CLOUDY    66  56  70 N6        30.12S
LOS ANGELES    CLEAR     63  60  90 VRB3      29.95R
WASHINGTON DC  CLOUDY    63  59  87 NW5       30.11S


USA.gov is the U.S. government's official web portal to all federal, state and local government web resources and services.